Regional Weather Roundup
Issued by NWS

Home | Current Version | Previous Version | Text Only | Print | Product List | Glossary Off
Versions: 1 2 3 4 5 6 7 8 9 10 11 12 13 14 15 16 17 18 19 20 21 22 23 24 25 26 27 28 29 30 31 32 33 34 35 36 37 38 39 40 41 42 43 44 45 46 47 48 49 50

000
ASUS45 KCYS 291410
RWRWY

WYOMING REGIONAL WEATHER ROUNDUP
NATIONAL WEATHER SERVICE CHEYENNE WY
800 AM MDT TUE JUL 29 2014

NOTE:  "FAIR" INDICATES FEW OR NO CLOUDS BELOW 12,000 FEET
WITH NO SIGNIFICANT WEATHER AND/OR OBSTRUCTIONS TO VISIBILITY.

WYZ001-291500-
YELLOWSTONE NATIONAL PARK

CITY           SKY/WX    TMP DP  RH WIND       PRES   REMARKS
LK YELLOWSTONE   N/A     52  49  89 CALM      30.48S
W YELLOWSTONE  NOT AVBL

$$
WYZ002>013-054>058-071-098>099-291500-
NORTHERN WYOMING

CITY           SKY/WX    TMP DP  RH WIND       PRES   REMARKS
JACKSON        NOT AVBL
CODY           NOT AVBL
GREYBULL       CLOUDY    72  51  47 SE5       30.20R
WORLAND        CLOUDY    73  52  47 S6        30.22S
SHERIDAN       CLOUDY    65  56  72 S5        30.26R
BUFFALO        CLOUDY    66  52  60 SW9       30.34R
GILLETTE       CLOUDY    62  59  90 S15       30.26F
HULETT         FAIR      63  55  77 MISG      30.29
NEWCASTLE      FAIR      63  57  82 NW12      30.28

$$
WYZ014>020-022>026-101>103-291500-
CENTRAL WYOMING

CITY           SKY/WX    TMP DP  RH WIND       PRES   REMARKS
BIG PINEY      CLOUDY    63  44  50 E3        30.36R
PINEDALE       DRIZZLE   59  50  72 N3        30.37R
DUBOIS         FAIR      63  41  45 SE8       30.39S
LANDER         CLOUDY    69  45  41 NE6       30.31R
RIVERTON       CLOUDY    65  50  58 W6        30.32R
CASPER         CLOUDY    60  50  69 E15G21    30.33R
DOUGLAS        CLOUDY    61  52  72 S7        30.33R

$$
WYZ021-027>030-104>119-291500-
SOUTHERN WYOMING

CITY           SKY/WX    TMP DP  RH WIND       PRES   REMARKS
EVANSTON       LGT RAIN  57  55  93 CALM      30.36S
FORT BRIDGER   CLOUDY    65  53  64 SW6       30.37S
ROCK SPRINGS   CLOUDY    66  45  46 E6        30.35R
DIXON          PTSUNNY   65  50  58 E3        30.37F
RAWLINS        CLOUDY    66  49  54 S3        30.35R
SARATOGA       FAIR      61  52  72 CALM      30.38R
LARAMIE        PTSUNNY   63  53  70 SE5       30.37R
CHEYENNE       MOSUNNY   68  56  65 CALM      30.31S
TORRINGTON     CLOUDY    61  57  87 NE13      30.27R
PINE BLUFFS    FAIR      61  57  88 CALM      30.28R

$$



USA.gov is the U.S. government's official web portal to all federal, state and local government web resources and services.